[[{"header":{"parameterUnit":"m.s-1","parameterCategory":1,"la1":30.2991,"la2":30.254,"lo1":-89.0895,"lo2":-89.0444,"dy":0.0017,"dx":0.0017,"nx":28,"ny":28,"refTime":"2025-11-04T03:00:00:Z","depth":0,"parameterNumber":2,"parameterNumberName":"U-component_of_WINDS"},"data":[0,0,0,0,0,0,0,0,0,0,0,0,0,0,0,0,0,0,0,0,0,0,0,0,0,0,0,0,0,0,0,0,0,0,0,0,0,0,0,0,0,0,0,0,0,0,0,0,0,0,0,0,0,0,0,0,0,0,-2.94,-2.9401,0,-2.9438,-2.9438,-2.9439,-2.9333,-2.933,-2.9327,-2.9323,-2.9364,-2.9368,-2.9372,0,0,0,0,0,0,0,0,0,0,0,0,0,-2.9239,-2.9243,-2.94,-2.9401,-2.9401,-2.9438,-2.9438,-2.9439,-2.9334,-2.933,-2.9326,-2.9322,-2.9363,-2.9367,-2.9372,0,0,0,0,0,0,0,0,0,0,0,0,0,-2.9296,-2.9244,-2.94,-2.9353,-2.9349,-2.9438,-2.9438,-2.9439,-2.9335,-2.933,-2.9325,-2.932,-2.9361,-2.9367,-2.9373,-2.9509,0,0,-2.9392,-2.9395,0,0,0,0,0,0,0,0,-2.9293,-2.9302,-2.936,-2.9357,-2.9352,-2.9376,-2.9396,-2.9463,-2.9336,-2.934,-2.9323,-2.9318,-2.9372,-2.9377,-2.9395,-2.9511,-2.9513,-2.9392,-2.9396,-2.9399,-2.9401,0,0,0,0,0,0,0,-2.9289,-2.93,-2.9415,-2.9361,-2.9356,-2.9331,-2.9333,-2.9408,-2.9383,-2.9339,-2.9332,-2.9338,-2.9369,-2.9389,-2.9395,-2.9514,-2.9392,-2.9398,-2.9402,-2.9404,-2.9743,-2.9748,0,0,0,0,0,0,-2.9291,-2.9297,-2.9414,-2.9416,-2.931,-2.9338,-2.9341,-2.9373,-2.9382,-2.9379,-2.9342,-2.9333,-2.9381,-2.9388,-2.9396,-2.9555,-2.9399,-2.9405,-2.9408,-2.9738,-2.9745,-2.975,0,0,0,0,0,0,-2.9288,-2.9303,-2.9412,-2.9355,-2.9367,-2.9346,-2.9383,-2.9377,-2.9396,-2.9384,-2.9379,-2.9367,-2.9377,-2.9387,-2.9482,-2.9555,-2.9407,-2.9413,-2.9732,-2.974,-2.9747,-2.9876,0,0,0,0,0,0,-2.9284,-2.9302,-2.9353,-2.9357,-2.937,-2.9497,-2.9388,-2.9381,-2.9407,-2.9395,-2.9406,-2.9403,-2.9374,-2.9473,-2.9488,-2.9561,-2.9418,-2.9725,-2.9736,-2.9745,-2.9865,-2.9887,-2.9907,0,0,0,0,0,-2.9279,-2.9389,-2.9356,-2.9371,-2.9434,-2.9502,-2.951,-2.9474,-2.9414,-2.9465,-2.9457,-2.9403,-2.9545,-2.9484,-2.9499,-2.9576,-2.972,-2.9733,-2.9744,-2.9856,-2.9883,-2.9906,0,0,0,0,0,0,-2.9395,-2.9388,-2.9352,-2.9467,-2.9486,-2.9484,-2.9547,-2.9504,-2.9541,-2.9528,-2.9483,-2.9486,-2.9589,-2.9592,-2.9523,-2.9708,-2.9623,-2.9638,-2.9702,-2.9728,-2.9748,-2.9745,-2.9423,0,0,0,0,0,-2.9434,-2.9489,-2.948,-2.9582,-2.9593,-2.9569,-2.9598,-2.9568,-2.9586,-2.9594,-2.9593,-2.9613,-2.9662,-2.9695,-2.974,-2.9866,-2.9866,-2.9926,-2.9947,-2.9964,-2.9977,-3.0044,-3.007,-2.979,-2.9789,-2.9789,0,0,-2.9515,-2.9518,-2.9556,-2.9605,-2.9617,-2.9675,-2.9577,-2.9643,-2.9686,-2.9604,-2.9692,-2.9693,-2.9712,-2.9823,-2.9872,-2.9828,-3.0055,-2.9979,-2.9993,-2.9997,-3.0059,-3.0085,-3.0109,-2.9798,-2.9796,-2.9795,0,0,-2.9692,-2.97,-2.9785,-2.9798,-2.9816,-2.9799,-2.982,-2.9826,-2.9822,-2.991,-2.985,-2.9901,-2.9987,-3.0003,-3.0022,-3.0207,-3.0158,-3.0223,-3.033,-3.0395,-3.0417,-3.0437,-3.0502,-3.0526,-3.0237,-3.0237,-3.0237,0,-2.979,-2.9875,-2.9835,-2.9905,-2.9928,-2.9857,-2.9943,-2.9958,-2.999,-3.0009,-2.996,-3.0066,-3.0074,-3.0187,-3.0232,-3.025,-3.0272,-3.022,-3.0417,-3.0436,-3.0454,-3.0515,-3.054,-3.0244,-3.0244,-3.0243,-3.0242,0,-2.9995,-3.0055,-3.0122,-3.0154,-3.0185,-3.0263,-3.0235,-3.0272,-3.024,-3.0229,-3.032,-3.0327,-3.0372,-3.0397,-3.0367,-3.0506,-3.0479,-3.0425,-3.0338,-3.0489,-3.0546,-3.0569,-3.0255,-3.0253,-3.025,-3.0249,0,0,-3.0245,-3.0254,-3.0279,-3.0292,-3.0307,-3.0353,-3.0428,-3.0471,-3.0503,-3.0529,-3.059,-3.0665,-3.0615,-3.0637,-3.0609,-3.0666,-3.0811,-3.0605,-3.0605,-3.0642,-3.0964,-3.1003,-3.1031,-3.0779,-3.0783,-3.0787,-3.0962,0,-3.0419,-3.0546,-3.0512,-3.0639,-3.0694,-3.0628,-3.0693,-3.071,-3.0701,-3.0747,-3.0738,-3.0792,-3.0722,-3.0735,-3.0789,-3.0782,-3.0874,-3.0769,-3.0836,-3.0839,-3.0832,-3.1061,-3.1103,-3.1268,-3.0984,-3.0988,-3.099,0,-3.0638,-3.067,-3.0803,-3.0809,-3.083,-3.089,-3.0926,-3.0971,-3.0989,-3.0979,-3.1004,-3.0964,-3.1039,-3.0953,-3.1054,-3.0983,-3.1009,-3.101,-3.1015,-3.1019,-3.0923,-3.107,-3.1319,-3.1344,-3.1025,-3.1022,-3.102,0,-3.0806,-3.0883,-3.0972,-3.0986,-3.0995,-3.1038,-3.1044,-3.1057,-3.1085,-3.1118,-3.1135,-3.1177,-3.1199,-3.1232,-3.1205,-3.1145,-3.1311,-3.1223,-3.1305,-3.1306,-3.1342,-3.134,-3.1598,-3.1361,-3.1361,-3.136,-3.136,0,-3.1002,-3.1086,-3.1048,-3.1102,-3.1194,-3.1155,-3.1247,-3.1246,-3.1258,-3.1311,-3.1257,-3.1309,-3.127,-3.1318,-3.1298,-3.1385,-3.1396,-3.139,-3.1383,-3.1394,-3.1395,-3.1409,-3.1397,-3.1367,-3.1365,-3.1364,-3.1363,0,-3.1205,-3.1183,-3.1275,-3.1276,-3.1278,-3.1346,-3.1347,-3.1398,-3.1386,-3.1455,-3.1469,-3.145,-3.1505,-3.1481,-3.1539,-3.1524,-3.1636,-3.1615,-3.163,-3.1624,-3.1708,-3.17,-3.1983,-3.2018,-3.176,-3.1762,-3.1764,0,-3.1331,-3.1394,-3.1401,-3.1433,-3.1442,-3.1494,-3.1522,-3.1487,-3.1518,-3.1544,-3.1592,-3.1641,-3.1679,-3.1769,-3.1761,-3.1805,-3.1784,-3.188,-3.179,-3.1799,-3.1784,-3.178,-3.1786,-3.1898,-3.1901,-3.1903,-3.1905,0,-3.1557,-3.1543,-3.1585,-3.1624,-3.1659,-3.1689,-3.1713,-3.1742,-3.1707,-3.1746,-3.1801,-3.183,-3.1888,-3.1938,-3.1977,-3.1983,-3.1939,-3.1934,-3.1955,-3.1966,-3.1972,-3.1969,-3.1678,-3.1927,-3.1925,-3.1923,-3.1922,-3.1921,-3.1725,-3.1777,-3.179,-3.1839,-3.1854,-3.1878,-3.1926,-3.192,-3.1964,-3.2009,-3.1985,-3.2049,-3.2065,-3.2113,-3.2125,-3.2175,-3.2137,-3.2168,-3.2176,-3.2184,-3.2194,-3.1965,-3.2182,-3.2182,-3.2181,-3.218,-3.218,0,-3.1947,-3.1952,-3.1998,-3.2033,-3.2072,-3.2027,-3.2052,-3.2087,-3.2144,-3.2163,-3.2201,-3.2263,-3.2312,-3.2308,-3.2353,-3.2393,-3.2374,-3.2406,-3.2402,-3.2404,-3.2226,-3.2203,-3.2421,-3.2421,-3.2421,-3.2421,-3.242,-3.242,-3.2067,-3.2153,-3.2141,-3.2234,-3.2238,-3.23,-3.2318,-3.234,-3.2355,-3.2427,-3.2467,-3.2464,-3.2474,-3.2519,-3.2561,-3.2559,-3.2577,-3.2617,-3.2607,-3.2441,-3.2417,-3.2394,-3.2372,-3.2622,-3.2622,-3.2781,-3.2782,-3.2783]},{"header":{"parameterUnit":"m.s-1","parameterCategory":1,"la1":30.2991,"la2":30.254,"lo1":-89.0895,"lo2":-89.0444,"dy":0.0017,"dx":0.0017,"nx":28,"ny":28,"refTime":"2025-11-04T03:00:00:Z","depth":0,"parameterNumber":3,"parameterNumberName":"V-component_of_WINDS"},"data":[0,0,0,0,0,0,0,0,0,0,0,0,0,0,0,0,0,0,0,0,0,0,0,0,0,0,0,0,0,0,0,0,0,0,0,0,0,0,0,0,0,0,0,0,0,0,0,0,0,0,0,0,0,0,0,0,0,0,1.591,1.591,0,1.5916,1.5916,1.5916,1.5934,1.5935,1.5935,1.5936,1.5939,1.5939,1.5939,0,0,0,0,0,0,0,0,0,0,0,0,0,1.5915,1.5914,1.591,1.591,1.591,1.5916,1.5916,1.5916,1.5934,1.5935,1.5935,1.5936,1.5939,1.5939,1.5939,0,0,0,0,0,0,0,0,0,0,0,0,0,1.5916,1.5914,1.591,1.592,1.5921,1.5916,1.5916,1.5916,1.5934,1.5935,1.5935,1.5936,1.5939,1.5939,1.5939,1.5923,0,0,1.5937,1.5937,0,0,0,0,0,0,0,0,1.5916,1.5915,1.5919,1.592,1.5921,1.5925,1.5919,1.5918,1.5934,1.5929,1.5936,1.5936,1.5934,1.5934,1.5933,1.5923,1.5923,1.5937,1.5937,1.5937,1.5937,0,0,0,0,0,0,0,1.5915,1.5915,1.5912,1.5919,1.592,1.5924,1.5925,1.5919,1.5928,1.593,1.5931,1.5932,1.5935,1.5934,1.5934,1.5923,1.5937,1.5937,1.5937,1.5936,1.59,1.59,0,0,0,0,0,0,1.5914,1.5915,1.5912,1.5913,1.592,1.5923,1.5924,1.5923,1.5928,1.5929,1.5931,1.5932,1.5934,1.5934,1.5934,1.5916,1.5937,1.5936,1.5936,1.5901,1.59,1.5899,0,0,0,0,0,0,1.5914,1.5914,1.5912,1.5914,1.5914,1.5923,1.5921,1.5923,1.5922,1.5929,1.5931,1.5929,1.5935,1.5935,1.5926,1.5916,1.5936,1.5936,1.5902,1.5901,1.59,1.5879,0,0,0,0,0,0,1.5914,1.5914,1.5908,1.5914,1.5914,1.5904,1.592,1.5922,1.5921,1.5923,1.5927,1.5928,1.5935,1.5926,1.5925,1.5916,1.5935,1.5903,1.5901,1.59,1.588,1.5877,1.5874,0,0,0,0,0,1.5914,1.5902,1.5908,1.5907,1.5908,1.5903,1.5903,1.5912,1.5921,1.5915,1.5919,1.5928,1.5917,1.5925,1.5924,1.5914,1.5903,1.5902,1.59,1.5882,1.5878,1.5875,0,0,0,0,0,0,1.5894,1.5903,1.5909,1.5899,1.59,1.5907,1.59,1.5908,1.5906,1.5908,1.5918,1.5919,1.5909,1.5911,1.5919,1.5899,1.5912,1.591,1.5898,1.5895,1.5892,1.5891,1.5935,0,0,0,0,0,1.5888,1.5885,1.5893,1.5882,1.5883,1.5891,1.5889,1.5896,1.5898,1.5898,1.5902,1.5903,1.59,1.5898,1.5895,1.5881,1.5882,1.5874,1.5871,1.5868,1.5866,1.5859,1.5855,1.5894,1.5894,1.5894,0,0,1.5876,1.5881,1.5878,1.5878,1.588,1.5876,1.5891,1.5886,1.5883,1.5897,1.5889,1.5892,1.5894,1.5882,1.5877,1.5884,1.5856,1.5866,1.5864,1.5864,1.5857,1.5853,1.585,1.5893,1.5893,1.5893,0,0,1.5852,1.5855,1.5847,1.5849,1.5852,1.5858,1.5856,1.5861,1.5863,1.5856,1.5866,1.5862,1.5857,1.5857,1.5857,1.5833,1.5841,1.5832,1.5816,1.5808,1.5805,1.5803,1.5793,1.579,1.583,1.583,1.583,0,1.5837,1.5831,1.5841,1.5835,1.5835,1.5849,1.584,1.5841,1.5843,1.5842,1.5849,1.5842,1.5845,1.5833,1.5827,1.5827,1.5824,1.5831,1.5805,1.5802,1.58,1.5791,1.5788,1.5829,1.5829,1.5829,1.5829,0,1.5811,1.5807,1.58,1.5802,1.5801,1.5793,1.5802,1.5799,1.5806,1.5811,1.5802,1.5806,1.5804,1.5802,1.5808,1.5791,1.5795,1.5803,1.5816,1.5795,1.5787,1.5784,1.5827,1.5828,1.5828,1.5828,0,0,1.5774,1.5782,1.5779,1.578,1.5784,1.5781,1.5774,1.5773,1.577,1.5771,1.5765,1.576,1.5768,1.5767,1.5774,1.5767,1.5748,1.5777,1.5777,1.5771,1.5728,1.5721,1.5717,1.5753,1.5753,1.5752,1.5727,0,1.575,1.5739,1.5748,1.5735,1.5731,1.5745,1.5738,1.574,1.5744,1.5741,1.5746,1.5742,1.5753,1.5753,1.5747,1.5751,1.5739,1.5753,1.5747,1.5746,1.5745,1.5712,1.5705,1.5681,1.5724,1.5724,1.5724,0,1.5721,1.5721,1.5708,1.5713,1.5711,1.5706,1.5705,1.5702,1.5704,1.5708,1.5707,1.5716,1.5709,1.5722,1.5711,1.5721,1.5719,1.5721,1.572,1.5719,1.5733,1.571,1.5674,1.567,1.5719,1.5719,1.572,0,1.5694,1.5691,1.5682,1.5683,1.5689,1.5684,1.5686,1.5689,1.5688,1.5687,1.5686,1.5685,1.5684,1.5682,1.5689,1.5698,1.5678,1.5692,1.568,1.5679,1.5674,1.5674,1.5637,1.5674,1.5674,1.5674,1.5674,0,1.5666,1.5657,1.567,1.5665,1.5655,1.5665,1.5655,1.5659,1.5661,1.5656,1.5668,1.5663,1.5674,1.567,1.5675,1.5665,1.5665,1.5667,1.5669,1.5666,1.5665,1.5664,1.5665,1.5673,1.5674,1.5674,1.5674,0,1.5634,1.5642,1.5634,1.564,1.5642,1.5634,1.564,1.5635,1.564,1.5633,1.5633,1.564,1.5636,1.5644,1.564,1.5644,1.563,1.5635,1.563,1.5631,1.5618,1.5619,1.5577,1.5572,1.5614,1.5614,1.5613,0,1.5615,1.5608,1.5615,1.5612,1.5614,1.5611,1.5609,1.562,1.5618,1.562,1.5614,1.5611,1.5609,1.5601,1.5606,1.5604,1.5608,1.5593,1.5607,1.5604,1.5606,1.5606,1.5605,1.559,1.559,1.5589,1.5589,0,1.558,1.5585,1.5583,1.5582,1.5581,1.558,1.5581,1.5578,1.5589,1.5586,1.5583,1.5581,1.5578,1.5574,1.5573,1.5574,1.5583,1.5585,1.5582,1.5578,1.5575,1.5575,1.5621,1.5585,1.5586,1.5586,1.5586,1.5586,1.5554,1.5548,1.5552,1.5549,1.5551,1.5551,1.5547,1.5552,1.5549,1.5547,1.5553,1.5548,1.555,1.5549,1.555,1.5545,1.5551,1.5547,1.5546,1.5544,1.5542,1.5576,1.5545,1.5545,1.5545,1.5545,1.5545,0,1.5519,1.5522,1.552,1.552,1.5518,1.5527,1.5529,1.5526,1.5521,1.5522,1.552,1.5516,1.5512,1.5517,1.5514,1.551,1.5513,1.5508,1.5508,1.5508,1.5537,1.554,1.5505,1.5505,1.5505,1.5505,1.5505,1.5505,1.5501,1.5492,1.5497,1.5489,1.5492,1.5487,1.5487,1.5487,1.5488,1.5483,1.548,1.5484,1.5486,1.5484,1.5481,1.5482,1.548,1.5474,1.5476,1.5503,1.5507,1.551,1.5513,1.5473,1.5473,1.5448,1.5448,1.5448]}]]